Location: Atherton
(17.2661°S, 145.4859°E)
Time: 23:47:16
(UTC+10:00)

Vanguard 1 - Pass Details

Date: 29 June 2025
Orbit: 649 x 3822 km, 34.2° (Epoch: 17 July)

Event Time Altitude Azimuth Distance (km) Brightness Sun altitude
Rises 17:22:15 0° 298° (WNW) 7,945 17.6 6.2°
Reaches altitude 10° 17:27:47 10° 296° (WNW) 6,903 17.5 5.0°
Maximum altitude 17:50:33 76° 212° (SSW) 3,066 12.7 0.1°
Drops below altitude 10° 18:04:21 10° 125° (SE) 4,483 12.8 -2.9°
Enters shadow 18:06:19 - 124° (ESE) 4,954 13.0 -3.4°
Sets 18:07:07 0° 123° (ESE) 5,153 - -3.5°
